Weather History for KTZR - December, 2013

Change the Weather History Date:

Friday, December 27, 2013

  Actual Average Record
Temperature  
Mean Temperature 36 °F -  
Max Temperature 44 °F 35 °F 66 °F (2008)
Min Temperature 29 °F 23 °F 8 °F (2004)
Degree Days  
Heating Degree Days 28    
Moisture  
Dew Point 26 °F    
Average Humidity 73    
Maximum Humidity 81    
Minimum Humidity 57    
Precipitation  
Precipitation 0.00 in - - ()
Sea Level Pressure  
Sea Level Pressure 30.31 in    
Wind  
Wind Speed 8 mph (SSW)    
Max Wind Speed 15 mph    
Max Gust Speed 20 mph    
Visibility 10 miles    
Events      
Averages and records for this station are not official NWS values.
T = Trace of Precipitation, MM = Missing Value Source: NWS Daily Summary

Daily Weather History Graph

Daily Weather History Graph

Search for Another Location

Airport or City:

Trip Planner

Search our weather history database for the weather conditions in past years. The results will help you decide how hot, cold, wet, or windy it might be!

Date:

Astronomy

Dec. 27, 2013 Rise Set
Actual Time 7:53 AM EST 5:14 PM EST
Civil Twilight 7:22 AM EST 5:45 PM EST
Nautical Twilight 6:48 AM EST 6:19 PM EST
Astronomical Twilight 6:15 AM EST 6:52 PM EST
Moon 2:23 AM EST (12/27) 1:24 PM EST (12/27)
Length of Visible Light 10h 22m
Length of Day
9h 21m
Waning Crescent, 28% of the Moon is Illuminated
Dec 27
Waning Crescent
Jan 1
New
Jan 7
First Quarter
Jan 15
Full
Jan 24
Last Quarter

Hourly Weather History & Observations

Time (EST) Temp. Windchill Dew Point Humidity Pressure Visibility Wind Dir Wind Speed Gust Speed Precip Events Conditions
12:15 AM 30.2 °F 25.4 °F 23.5 °F 76% 30.32 in 10.0 mi South 4.6 mph - N/A   Overcast
12:35 AM 30.2 °F 24.3 °F 23.5 °F 76% 30.32 in 10.0 mi South 5.8 mph - N/A   Overcast
12:55 AM 29.5 °F 23.4 °F 23.0 °F 77% 30.32 in 10.0 mi South 5.8 mph - N/A   Mostly Cloudy
1:15 AM 29.3 °F 22.3 °F 23.5 °F 79% 30.32 in 10.0 mi SSW 6.9 mph - N/A   Overcast
1:35 AM 29.1 °F 23.0 °F 23.7 °F 80% 30.32 in 10.0 mi SSW 5.8 mph - N/A   Overcast
1:55 AM 29.1 °F 22.1 °F 23.9 °F 81% 30.32 in 10.0 mi SSW 6.9 mph - N/A   Overcast
2:15 AM 30.2 °F 22.6 °F 24.6 °F 80% 30.32 in 10.0 mi SSW 8.1 mph - N/A   Overcast
2:35 AM 31.1 °F - 24.8 °F 77% 30.32 in 10.0 mi North - - N/A   Overcast
2:55 AM 32.0 °F - 25.3 °F 76% 30.31 in 10.0 mi North - - N/A   Overcast
3:15 AM 32.0 °F - 25.3 °F 76% 30.31 in 10.0 mi North - - N/A   Overcast
3:35 AM 32.0 °F - 25.7 °F 78% 30.32 in 10.0 mi North - - N/A   Overcast
3:55 AM 32.4 °F - 25.7 °F 76% 30.31 in 10.0 mi North - - N/A   Overcast
4:15 AM 32.9 °F 24.1 °F 25.5 °F 74% 30.31 in 10.0 mi SW 11.5 mph - N/A   Overcast
4:35 AM 33.3 °F 24.6 °F 25.3 °F 73% 30.31 in 10.0 mi SW 11.5 mph - N/A   Overcast
4:55 AM 33.3 °F 24.6 °F 25.2 °F 72% 30.31 in 10.0 mi SW 11.5 mph - N/A   Overcast
5:15 AM 33.3 °F 26.4 °F 25.2 °F 72% 30.31 in 10.0 mi SW 8.1 mph - N/A   Overcast
5:35 AM 33.3 °F 25.1 °F 24.8 °F 71% 30.31 in 10.0 mi SW 10.4 mph - N/A   Overcast
5:55 AM 32.9 °F 24.1 °F 25.3 °F 74% 30.31 in 10.0 mi SW 11.5 mph - N/A   Overcast
6:15 AM 32.9 °F 24.7 °F 25.3 °F 74% 30.30 in 10.0 mi SW 10.4 mph - N/A   Overcast
7:20 AM 32.0 °F 26.4 °F 24.8 °F 75% 30.32 in 10.0 mi South 5.8 mph - N/A   Mostly Cloudy
7:47 AM 30.2 °F 24.3 °F 24.8 °F 80% 30.33 in 10.0 mi SSW 5.8 mph - N/A   Mostly Cloudy
8:47 AM 30.2 °F 23.4 °F 24.8 °F 80% 30.34 in 10.0 mi South 6.9 mph - N/A   Clear
9:47 AM 33.8 °F 25.8 °F 24.8 °F 70% 30.37 in 10.0 mi WSW 10.4 mph - N/A   Mostly Cloudy
10:55 AM 37.4 °F 29.8 °F 26.6 °F 65% 30.38 in 10.0 mi WSW 11.5 mph - N/A   Clear
11:50 AM 39.2 °F 33.0 °F 26.6 °F 61% 30.36 in 10.0 mi WSW 9.2 mph - N/A   Clear
12:50 PM 41.0 °F 35.2 °F 28.4 °F 61% 30.34 in 10.0 mi WSW 9.2 mph - N/A   Clear
1:50 PM 42.8 °F 38.0 °F 28.4 °F 57% 30.33 in 10.0 mi SW 8.1 mph - N/A   Clear
2:50 PM 44.6 °F 38.8 °F 30.2 °F 57% 30.31 in 10.0 mi SSW 11.5 mph - N/A   Clear
3:50 PM 42.8 °F 36.6 °F 28.4 °F 57% 30.30 in 10.0 mi SSW 11.5 mph - N/A   Clear
4:50 PM 41.0 °F 36.4 °F 30.2 °F 65% 30.30 in 10.0 mi SSW 6.9 mph - N/A   Clear
5:50 PM 37.4 °F 31.4 °F 28.4 °F 70% 30.30 in 10.0 mi South 8.1 mph - N/A   Clear
6:35 PM 35.6 °F - 28.4 °F 75% 30.30 in 10.0 mi North - - N/A   Clear
6:50 PM 35.6 °F 27.5 °F 28.4 °F 75% 30.29 in 10.0 mi SSW 11.5 mph - N/A   Clear
6:55 PM 36.1 °F - 28.4 °F 73% 30.29 in 10.0 mi North - - N/A   Clear
7:15 PM 36.7 °F - 28.8 °F 73% 30.29 in 10.0 mi North - - N/A   Clear
7:35 PM 35.6 °F - 28.4 °F 75% 30.29 in 10.0 mi North - - N/A   Clear
7:55 PM 34.5 °F - 27.9 °F 77% 30.29 in 10.0 mi North - - N/A   Clear
8:15 PM 34.3 °F - 27.9 °F 77% 30.29 in 10.0 mi North - - N/A   Clear
8:35 PM 34.9 °F - 28.0 °F 76% 30.28 in 10.0 mi North - - N/A   Clear
8:55 PM 34.9 °F - 27.5 °F 74% 30.28 in 10.0 mi North - - N/A   Clear
9:15 PM 34.5 °F - 27.5 °F 76% 30.28 in 10.0 mi North - - N/A   Clear
9:35 PM 34.7 °F - 27.3 °F 74% 30.28 in 10.0 mi North - - N/A   Clear
9:55 PM 33.8 °F - 27.0 °F 76% 30.29 in 10.0 mi North - - N/A   Clear
10:15 PM 34.0 °F - 27.1 °F 76% 30.29 in 10.0 mi North - - N/A   Clear
10:35 PM 34.2 °F - 27.3 °F 76% 30.28 in 10.0 mi North - - N/A   Clear
10:55 PM 34.7 °F - 27.5 °F 75% 30.28 in 10.0 mi North - - N/A   Clear
11:15 PM 35.6 °F 26.6 °F 28.0 °F 74% 30.28 in 10.0 mi SSW 13.8 mph - N/A   Clear
11:35 PM 36.1 °F 26.9 °F 28.0 °F 72% 30.27 in 10.0 mi SSW 15.0 mph 19.6 mph N/A   Clear
11:55 PM 35.8 °F 27.3 °F 27.9 °F 73% 30.26 in 10.0 mi SSW 12.7 mph - N/A   Clear